| time (UTC) | temp C | wind direction | speed KPH | gust KPH | rain 1hr cm | rain 24hr cm | rain mn cm | humidity % | barometer mb |
| 20260831230032 | 16 | 277 | 0.0 | 1.6 | 0.00 | 0.23 | 0.20 | 77 | 1015.7 |
| 20260831224530 | 17 | 278 | 0.0 | 0.0 | 0.00 | 0.23 | 0.20 | 75 | 1015.7 |
| 20260831223032 | 17 | 278 | 0.0 | 1.6 | 0.00 | 0.23 | 0.20 | 72 | 1015.6 |
| 20260831221529 | 18 | 297 | 0.0 | 3.2 | 0.00 | 0.23 | 0.20 | 69 | 1015.5 |
| 20260831220029 | 19 | 245 | 0.0 | 6.4 | 0.00 | 0.23 | 0.20 | 66 | 1015.5 |
| 20260831214526 | 20 | 240 | 0.0 | 9.7 | 0.00 | 0.23 | 0.20 | 64 | 1015.3 |
| 20260831213033 | 20 | 332 | 1.6 | 8.0 | 0.00 | 0.23 | 0.20 | 64 | 1015.2 |
| 20260831211523 | 20 | 260 | 1.6 | 8.0 | 0.00 | 0.23 | 0.20 | 63 | 1015.0 |
| 20260831210022 | 21 | 27 | 1.6 | 12.9 | 0.00 | 0.23 | 0.20 | 60 | 1014.7 |
| 20260831204519 | 21 | 262 | 0.0 | 14.5 | 0.00 | 0.23 | 0.20 | 60 | 1014.5 |
| 20260831203020 | 22 | 66 | 0.0 | 8.0 | 0.00 | 0.23 | 0.20 | 60 | 1014.6 |
| 20260831201518 | 22 | 67 | 1.6 | 14.5 | 0.00 | 0.23 | 0.20 | 61 | 1014.4 |
| 20260831200023 | 22 | 46 | 1.6 | 16.1 | 0.00 | 0.23 | 0.20 | 58 | 1014.3 |
| 20260831194531 | 22 | 309 | 1.6 | 9.7 | 0.00 | 0.23 | 0.20 | 57 | 1014.2 |
| 20260831193017 | 23 | 57 | 3.2 | 16.1 | 0.00 | 0.23 | 0.20 | 53 | 1014.1 |
| 20260831191512 | 23 | 346 | 1.6 | 12.9 | 0.00 | 0.23 | 0.20 | 54 | 1013.9 |
| 20260831190013 | 23 | 259 | 1.6 | 9.7 | 0.00 | 0.23 | 0.20 | 51 | 1013.9 |
| 20260831184519 | 23 | 192 | 1.6 | 16.1 | 0.00 | 0.23 | 0.20 | 53 | 1013.7 |
| 20260831183009 | 23 | 6 | 3.2 | 12.9 | 0.00 | 0.23 | 0.20 | 52 | 1013.7 |
| 20260831181516 | 23 | 18 | 3.2 | 9.7 | 0.00 | 0.23 | 0.20 | 51 | 1013.6 |
| 20260831180009 | 23 | 335 | 3.2 | 14.5 | 0.00 | 0.23 | 0.20 | 51 | 1013.5 |
| 20260831174508 | 23 | 44 | 4.8 | 11.3 | 0.00 | 0.23 | 0.20 | 51 | 1013.6 |
| 20260831173006 | 23 | 253 | 1.6 | 12.9 | 0.00 | 0.23 | 0.20 | 51 | 1013.5 |
| 20260831171504 | 23 | 289 | 1.6 | 11.3 | 0.00 | 0.23 | 0.20 | 54 | 1013.6 |
| 20260831170002 | 23 | 53 | 3.2 | 11.3 | 0.00 | 0.23 | 0.20 | 50 | 1013.4 |
| 20260831164501 | 23 | 79 | 4.8 | 12.9 | 0.00 | 0.23 | 0.20 | 51 | 1013.6 |
| 20260831163100 | 23 | 95 | 1.6 | 8.0 | 0.00 | 0.23 | 0.20 | 52 | 1013.6 |
| 20260831161556 | 22 | 277 | 1.6 | 14.5 | 0.00 | 0.23 | 0.20 | 51 | 1013.5 |
| 20260831160055 | 22 | 276 | 3.2 | 9.7 | 0.00 | 0.23 | 0.20 | 55 | 1013.5 |
| 20260831154553 | 22 | 18 | 3.2 | 14.5 | 0.00 | 0.23 | 0.20 | 55 | 1013.4 |
| 20260831153055 | 22 | 296 | 1.6 | 12.9 | 0.00 | 0.23 | 0.20 | 59 | 1013.3 |
| 20260831151558 | 22 | 236 | 3.2 | 11.3 | 0.00 | 0.23 | 0.20 | 58 | 1013.5 |
| 20260831150049 | 21 | 326 | 4.8 | 14.5 | 0.00 | 0.23 | 0.20 | 56 | 1013.5 |
| 20260831144554 | 21 | 41 | 1.6 | 9.7 | 0.00 | 0.23 | 0.20 | 65 | 1013.6 |
| 20260831143044 | 21 | 72 | 1.6 | 12.9 | 0.00 | 0.23 | 0.20 | 63 | 1013.7 |
| 20260831141534 | 21 | 331 | 4.8 | 11.3 | 0.00 | 0.23 | 0.20 | 64 | 1013.6 |
| 20260831140033 | 20 | 289 | 4.8 | 11.3 | 0.00 | 0.23 | 0.20 | 67 | 1013.5 |
| 20260831134528 | 20 | 15 | 1.6 | 9.7 | 0.00 | 0.23 | 0.20 | 69 | 1013.3 |
| 20260831133025 | 19 | 226 | 1.6 | 11.3 | 0.00 | 0.23 | 0.20 | 73 | 1013.3 |
| 20260831131520 | 18 | 353 | 1.6 | 12.9 | 0.00 | 0.23 | 0.20 | 75 | 1013.2 |
| 20260831130021 | 18 | 347 | 3.2 | 16.1 | 0.00 | 0.23 | 0.20 | 74 | 1012.9 |
| 20260831124515 | 18 | 324 | 3.2 | 11.3 | 0.00 | 0.23 | 0.20 | 76 | 1012.8 |
| 20260831123011 | 17 | 82 | 1.6 | 12.9 | 0.00 | 0.23 | 0.20 | 81 | 1012.8 |
| 20260831121510 | 17 | 230 | 0.0 | 9.7 | 0.00 | 0.23 | 0.20 | 84 | 1012.8 |
| 20260831120016 | 17 | 278 | 3.2 | 11.3 | 0.00 | 0.23 | 0.20 | 86 | 1012.7 |
| 20260831114508 | 16 | 308 | 1.6 | 9.7 | 0.00 | 0.23 | 0.20 | 88 | 1012.7 |
| 20260831113007 | 16 | 241 | 1.6 | 12.9 | 0.00 | 0.23 | 0.20 | 90 | 1012.7 |
| 20260831111505 | 16 | 274 | 0.0 | 8.0 | 0.00 | 0.23 | 0.20 | 91 | 1012.6 |
| 20260831110003 | 15 | 262 | 1.6 | 8.0 | 0.00 | 0.23 | 0.20 | 92 | 1012.6 |
| 20260831104504 | 15 | 259 | 0.0 | 4.8 | 0.00 | 0.23 | 0.20 | 92 | 1012.2 |
| 20260831103104 | 14 | 257 | 0.0 | 1.6 | 0.00 | 0.23 | 0.20 | 93 | 1012.2 |
| 20260831101559 | 14 | 262 | 0.0 | 3.2 | 0.00 | 0.23 | 0.20 | 93 | 1012.0 |
| 20260831094557 | 15 | 270 | 1.6 | 6.4 | 0.03 | 0.23 | 0.20 | 93 | 1011.8 |
| 20260831093054 | 15 | 280 | 1.6 | 6.4 | 0.05 | 0.23 | 0.20 | 93 | 1011.7 |
| 20260831091552 | 15 | 247 | 0.0 | 6.4 | 0.05 | 0.23 | 0.20 | 93 | 1011.4 |
| 20260831090048 | 15 | 332 | 1.6 | 6.4 | 0.05 | 0.23 | 0.20 | 93 | 1011.2 |
| 20260831084552 | 15 | 273 | 0.0 | 4.8 | 0.00 | 0.18 | 0.15 | 93 | 1011.0 |
| 20260831083048 | 16 | 257 | 1.6 | 6.4 | 0.00 | 0.18 | 0.15 | 93 | 1011.0 |
| 20260831081600 | 16 | 258 | 1.6 | 8.0 | 0.03 | 0.18 | 0.15 | 93 | 1011.1 |
| 20260831080041 | 16 | 276 | 1.6 | 4.8 | 0.03 | 0.18 | 0.15 | 93 | 1010.8 |
| 20260831074544 | 16 | 290 | 0.0 | 8.0 | 0.05 | 0.18 | 0.15 | 93 | 1011.0 |
| 20260831073106 | 16 | 271 | 0.0 | 6.4 | 0.05 | 0.18 | 0.15 | 93 | 1011.1 |
| 20260831071538 | 16 | 307 | 0.0 | 4.8 | 0.03 | 0.15 | 0.15 | 93 | 1011.0 |
| 20260831070037 | 16 | 274 | 0.0 | 6.4 | 0.03 | 0.15 | 0.15 | 93 | 1010.9 |
| 20260831064540 | 16 | 280 | 1.6 | 6.4 | 0.00 | 0.15 | 0.13 | 93 | 1011.1 |
| 20260831063035 | 16 | 260 | 0.0 | 4.8 | 0.03 | 0.15 | 0.13 | 93 | 1010.7 |
| 20260831061538 | 16 | 252 | 0.0 | 4.8 | 0.03 | 0.15 | 0.13 | 93 | 1010.4 |
| 20260831060031 | 16 | 274 | 0.0 | 3.2 | 0.05 | 0.15 | 0.13 | 92 | 1010.6 |
| 20260831054534 | 17 | 263 | 0.0 | 4.8 | 0.05 | 0.15 | 0.13 | 92 | 1010.7 |
| 20260831053033 | 17 | 259 | 0.0 | 4.8 | 0.03 | 0.13 | 0.10 | 92 | 1010.6 |
| 20260831051528 | 17 | 258 | 1.6 | 6.4 | 0.03 | 0.13 | 0.10 | 92 | 1010.8 |
| 20260831050039 | 17 | 247 | 3.2 | 14.5 | 0.05 | 0.10 | 0.08 | 92 | 1010.9 |
| 20260831044525 | 17 | 162 | 1.6 | 12.9 | 0.08 | 0.10 | 0.08 | 92 | 1011.0 |
| 20260831043027 | 17 | 285 | 3.2 | 12.9 | 0.08 | 0.10 | 0.08 | 92 | 1011.0 |
| 20260831041527 | 17 | 305 | 3.2 | 12.9 | 0.08 | 0.10 | 0.08 | 92 | 1010.8 |
| 20260831040040 | 18 | 255 | 4.8 | 17.7 | 0.05 | 0.05 | 0.05 | 91 | 1011.0 |
| 20260831034529 | 18 | 143 | 1.6 | 16.1 | 0.00 | 0.03 | 0.00 | 91 | 1011.0 |
| 20260831033020 | 18 | 245 | 11.3 | 22.5 | 0.00 | 0.03 | 0.00 | 91 | 1010.8 |
| 20260831031515 | 18 | 259 | 6.4 | 20.9 | 0.00 | 0.03 | 0.00 | 91 | 1010.7 |
| 20260831030024 | 18 | 264 | 12.9 | 24.1 | 0.00 | 0.03 | 0.00 | 91 | 1011.0 |
| 20260831024511 | 18 | 264 | 8.0 | 16.1 | 0.00 | 0.03 | 0.03 | 92 | 1011.2 |
| 20260831023009 | 18 | 252 | 11.3 | 20.9 | 0.00 | 0.03 | 0.03 | 91 | 1011.4 |
| 20260831021507 | 18 | 236 | 11.3 | 20.9 | 0.00 | 0.03 | 0.03 | 91 | 1011.7 |
| 20260831020006 | 18 | 242 | 9.7 | 17.7 | 0.03 | 0.03 | 0.03 | 91 | 1012.0 |
| 20260831014505 | 18 | 284 | 12.9 | 20.9 | 0.03 | 0.03 | 0.03 | 91 | 1012.1 |
| 20260831013003 | 18 | 262 | 9.7 | 19.3 | 0.03 | 0.03 | 0.03 | 91 | 1012.4 |
| 20260831011502 | 18 | 251 | 6.4 | 17.7 | 0.03 | 0.03 | 0.03 | 91 | 1012.4 |
| 20260831010104 | 18 | 250 | 9.7 | 19.3 | 0.00 | 0.00 | 0.00 | 91 | 1012.4 |
| 20260831004502 | 18 | 250 | 6.4 | 14.5 | 0.00 | 0.00 | 0.00 | 90 | 1012.5 |
| 20260831003100 | 18 | 265 | 4.8 | 17.7 | 0.00 | 0.00 | 0.00 | 89 | 1012.5 |
| 20260831001559 | 18 | 278 | 4.8 | 12.9 | 0.00 | 0.00 | 0.00 | 89 | 1012.5 |
| 20260831000103 | 18 | 243 | 9.7 | 19.3 | 0.00 | 0.00 | 0.00 | 89 | 1012.6 |
| 20260830234606 | 18 | 283 | 8.0 | 19.3 | 0.00 | 0.00 | 0.00 | 89 | 1012.5 |
| 20260830233103 | 18 | 255 | 9.7 | 22.5 | 0.00 | 0.00 | 0.00 | 89 | 1012.7 |
| 20260830231555 | 19 | 245 | 12.9 | 27.4 | 0.00 | 0.00 | 0.00 | 90 | 1012.8 |